| time (UTC) | temp C | wind direction | speed KPH | gust KPH | rain 1hr cm | rain 24hr cm | rain mn cm | humidity % | barometer mb |
| 20260505035741 | 13 | 247 | 1.6 | 1.6 | 0.00 | 0.00 | 0.00 | 65 | 1006.9 |
| 20260505035236 | 13 | 297 | 1.6 | 1.6 | 0.00 | 0.00 | 0.00 | 64 | 1006.9 |
| 20260505034734 | 13 | 267 | 1.6 | 1.6 | 0.00 | 0.00 | 0.00 | 64 | 1007.0 |
| 20260505034230 | 13 | 253 | 1.6 | 3.2 | 0.00 | 0.00 | 0.00 | 64 | 1006.9 |
| 20260505033727 | 13 | 228 | 0.0 | 1.6 | 0.00 | 0.00 | 0.00 | 63 | 1006.9 |
| 20260505033225 | 14 | 279 | 1.6 | 3.2 | 0.00 | 0.00 | 0.00 | 63 | 1007.0 |
| 20260505032723 | 15 | 322 | 1.6 | 1.6 | 0.00 | 0.00 | 0.00 | 61 | 1006.7 |
| 20260505032218 | 15 | 339 | 1.6 | 1.6 | 0.00 | 0.00 | 0.00 | 61 | 1006.7 |
| 20260505031716 | 15 | 242 | 1.6 | 3.2 | 0.00 | 0.00 | 0.00 | 60 | 1006.5 |
| 20260505031212 | 15 | 285 | 1.6 | 1.6 | 0.00 | 0.00 | 0.00 | 59 | 1006.8 |
| 20260505030709 | 16 | 306 | 0.0 | 0.0 | 0.00 | 0.00 | 0.00 | 59 | 1006.7 |
| 20260505030205 | 16 | 321 | 0.0 | 1.6 | 0.00 | 0.00 | 0.00 | 56 | 1006.7 |
| 20260505025701 | 16 | 345 | 0.0 | 1.6 | 0.00 | 0.00 | 0.00 | 52 | 1006.6 |
| 20260505025200 | 17 | 253 | 1.6 | 1.6 | 0.00 | 0.00 | 0.00 | 55 | 1006.7 |
| 20260505024657 | 17 | 312 | 1.6 | 1.6 | 0.00 | 0.00 | 0.00 | 54 | 1006.5 |
| 20260505024154 | 18 | 353 | 0.0 | 0.0 | 0.00 | 0.00 | 0.00 | 48 | 1006.6 |
| 20260505023652 | 19 | 26 | 0.0 | 0.0 | 0.00 | 0.00 | 0.00 | 46 | 1006.7 |
| 20260505023149 | 20 | 26 | 0.0 | 0.0 | 0.00 | 0.00 | 0.00 | 39 | 1006.7 |
| 20260505022646 | 20 | 45 | 0.0 | 0.0 | 0.00 | 0.00 | 0.00 | 37 | 1006.5 |
| 20260505022143 | 20 | 90 | 0.0 | 0.0 | 0.00 | 0.00 | 0.00 | 37 | 1006.6 |
| 20260505021639 | 21 | 79 | 0.0 | 0.0 | 0.00 | 0.00 | 0.00 | 36 | 1006.6 |
| 20260505021137 | 21 | 67 | 0.0 | 0.0 | 0.00 | 0.00 | 0.00 | 36 | 1006.5 |
| 20260505020632 | 21 | 8 | 6.4 | 9.7 | 0.00 | 0.00 | 0.00 | 36 | 1006.5 |
| 20260505020128 | 21 | 64 | 0.0 | 1.6 | 0.00 | 0.00 | 0.00 | 35 | 1006.3 |
| 20260505015626 | 22 | 135 | 1.6 | 3.2 | 0.00 | 0.00 | 0.00 | 35 | 1006.3 |
| 20260505015122 | 22 | 79 | 0.0 | 0.0 | 0.00 | 0.00 | 0.00 | 35 | 1006.5 |
| 20260505014619 | 22 | 82 | 1.6 | 1.6 | 0.00 | 0.00 | 0.00 | 34 | 1006.3 |
| 20260505014116 | 22 | 70 | 1.6 | 1.6 | 0.00 | 0.00 | 0.00 | 34 | 1006.6 |
| 20260505013613 | 22 | 106 | 0.0 | 1.6 | 0.00 | 0.00 | 0.00 | 34 | 1006.3 |
| 20260505013110 | 22 | 78 | 0.0 | 0.0 | 0.00 | 0.00 | 0.00 | 35 | 1006.6 |
| 20260505012609 | 22 | 84 | 1.6 | 3.2 | 0.00 | 0.00 | 0.00 | 34 | 1006.3 |
| 20260505012105 | 22 | 36 | 3.2 | 4.8 | 0.00 | 0.00 | 0.00 | 33 | 1006.5 |
| 20260505011601 | 23 | 88 | 0.0 | 1.6 | 0.00 | 0.00 | 0.00 | 33 | 1006.6 |
| 20260505011058 | 23 | 61 | 3.2 | 3.2 | 0.00 | 0.00 | 0.00 | 32 | 1006.5 |
| 20260505010553 | 23 | 31 | 3.2 | 3.2 | 0.00 | 0.00 | 0.00 | 32 | 1006.5 |
| 20260505010050 | 22 | 77 | 0.0 | 1.6 | 0.00 | 0.00 | 0.00 | 33 | 1006.3 |
| 20260505005546 | 23 | 33 | 9.7 | 12.9 | 0.00 | 0.00 | 0.00 | 32 | 1006.5 |
| 20260505005044 | 23 | 120 | 1.6 | 3.2 | 0.00 | 0.00 | 0.00 | 32 | 1006.7 |
| 20260505004541 | 23 | 109 | 1.6 | 3.2 | 0.00 | 0.00 | 0.00 | 33 | 1006.5 |
| 20260505004037 | 23 | 82 | 4.8 | 6.4 | 0.00 | 0.00 | 0.00 | 31 | 1006.3 |
| 20260505003534 | 23 | 69 | 8.0 | 14.5 | 0.00 | 0.00 | 0.00 | 31 | 1006.3 |
| 20260505003026 | 23 | 56 | 3.2 | 4.8 | 0.00 | 0.00 | 0.00 | 34 | 1006.5 |
| 20260505002520 | 23 | 313 | 1.6 | 3.2 | 0.00 | 0.00 | 0.00 | 32 | 1006.3 |
| 20260505002015 | 23 | 135 | 4.8 | 4.8 | 0.00 | 0.00 | 0.00 | 33 | 1006.3 |
| 20260505001512 | 23 | 116 | 4.8 | 6.4 | 0.00 | 0.00 | 0.00 | 31 | 1006.3 |
| 20260505001009 | 23 | 107 | 0.0 | 0.0 | 0.00 | 0.00 | 0.00 | 31 | 1006.6 |
| 20260505000506 | 23 | 68 | 0.0 | 1.6 | 0.00 | 0.00 | 0.00 | 33 | 1006.5 |
| 20260505000004 | 23 | 41 | 4.8 | 4.8 | 0.00 | 0.00 | 0.00 | 31 | 1006.2 |
| 20260504235500 | 24 | 97 | 1.6 | 1.6 | 0.00 | 0.00 | 0.00 | 31 | 1006.5 |
| 20260504234956 | 23 | 89 | 1.6 | 3.2 | 0.00 | 0.00 | 0.00 | 32 | 1006.6 |
| 20260504234454 | 24 | 65 | 6.4 | 6.4 | 0.00 | 0.00 | 0.00 | 31 | 1006.5 |
| 20260504233950 | 24 | 75 | 0.0 | 1.6 | 0.00 | 0.00 | 0.00 | 31 | 1006.6 |
| 20260504233446 | 24 | 68 | 4.8 | 6.4 | 0.00 | 0.00 | 0.00 | 31 | 1006.2 |
| 20260504232943 | 23 | 76 | 1.6 | 1.6 | 0.00 | 0.00 | 0.00 | 32 | 1006.3 |
| 20260504232440 | 23 | 355 | 1.6 | 1.6 | 0.00 | 0.00 | 0.00 | 32 | 1006.5 |
| 20260504231938 | 23 | 20 | 6.4 | 9.7 | 0.00 | 0.00 | 0.00 | 31 | 1006.6 |
| 20260504231433 | 23 | 56 | 6.4 | 6.4 | 0.00 | 0.00 | 0.00 | 32 | 1006.6 |
| 20260504230930 | 24 | 348 | 6.4 | 9.7 | 0.00 | 0.00 | 0.00 | 31 | 1006.3 |
| 20260504230427 | 23 | 54 | 6.4 | 9.7 | 0.00 | 0.00 | 0.00 | 31 | 1006.5 |
| 20260504225926 | 23 | 55 | 0.0 | 0.0 | 0.00 | 0.00 | 0.00 | 32 | 1006.7 |
| 20260504225422 | 24 | 16 | 14.5 | 17.7 | 0.00 | 0.00 | 0.00 | 32 | 1006.8 |
| 20260504224919 | 24 | 65 | 3.2 | 3.2 | 0.00 | 0.00 | 0.00 | 32 | 1006.7 |
| 20260504224416 | 23 | 67 | 3.2 | 3.2 | 0.00 | 0.00 | 0.00 | 32 | 1006.5 |
| 20260504223913 | 24 | 86 | 0.0 | 1.6 | 0.00 | 0.00 | 0.00 | 31 | 1006.7 |
| 20260504223409 | 23 | 86 | 1.6 | 3.2 | 0.00 | 0.00 | 0.00 | 31 | 1006.8 |
| 20260504222905 | 23 | 180 | 1.6 | 1.6 | 0.00 | 0.00 | 0.00 | 33 | 1006.8 |
| 20260504222402 | 24 | 177 | 6.4 | 6.4 | 0.00 | 0.00 | 0.00 | 32 | 1006.8 |
| 20260504221900 | 24 | 140 | 3.2 | 6.4 | 0.00 | 0.00 | 0.00 | 34 | 1006.9 |
| 20260504221356 | 24 | 87 | 0.0 | 0.0 | 0.00 | 0.00 | 0.00 | 32 | 1006.5 |
| 20260504220854 | 24 | 102 | 6.4 | 11.3 | 0.00 | 0.00 | 0.00 | 32 | 1006.7 |
| 20260504220350 | 24 | 163 | 6.4 | 6.4 | 0.00 | 0.00 | 0.00 | 36 | 1006.8 |
| 20260504215848 | 23 | 36 | 0.0 | 0.0 | 0.00 | 0.00 | 0.00 | 31 | 1006.6 |
| 20260504215344 | 23 | 102 | 3.2 | 4.8 | 0.00 | 0.00 | 0.00 | 32 | 1006.7 |
| 20260504214840 | 23 | 79 | 3.2 | 4.8 | 0.00 | 0.00 | 0.00 | 35 | 1007.0 |
| 20260504214337 | 24 | 68 | 0.0 | 0.0 | 0.00 | 0.00 | 0.00 | 32 | 1006.8 |
| 20260504213834 | 24 | 36 | 1.6 | 1.6 | 0.00 | 0.00 | 0.00 | 32 | 1007.1 |
| 20260504213330 | 23 | 86 | 0.0 | 1.6 | 0.00 | 0.00 | 0.00 | 33 | 1007.0 |
| 20260504212828 | 23 | 156 | 11.3 | 14.5 | 0.00 | 0.00 | 0.00 | 34 | 1007.0 |
| 20260504212323 | 23 | 146 | 12.9 | 16.1 | 0.00 | 0.00 | 0.00 | 35 | 1007.1 |
| 20260504211822 | 24 | 168 | 1.6 | 3.2 | 0.00 | 0.00 | 0.00 | 35 | 1007.1 |
| 20260504211317 | 24 | 109 | 3.2 | 4.8 | 0.00 | 0.00 | 0.00 | 34 | 1007.0 |
| 20260504210815 | 23 | 40 | 6.4 | 6.4 | 0.00 | 0.00 | 0.00 | 32 | 1007.1 |
| 20260504210312 | 23 | 357 | 1.6 | 3.2 | 0.00 | 0.00 | 0.00 | 33 | 1007.0 |
| 20260504205809 | 23 | 122 | 4.8 | 6.4 | 0.00 | 0.00 | 0.00 | 35 | 1006.9 |
| 20260504205306 | 23 | 85 | 4.8 | 4.8 | 0.00 | 0.00 | 0.00 | 32 | 1007.1 |
| 20260504204805 | 23 | 104 | 0.0 | 1.6 | 0.00 | 0.00 | 0.00 | 35 | 1007.1 |
| 20260504204303 | 23 | 19 | 6.4 | 9.7 | 0.00 | 0.00 | 0.00 | 33 | 1007.1 |
| 20260504203802 | 22 | 148 | 6.4 | 9.7 | 0.00 | 0.00 | 0.00 | 35 | 1007.0 |
| 20260504203258 | 23 | 17 | 11.3 | 12.9 | 0.00 | 0.00 | 0.00 | 32 | 1007.2 |
| 20260504202753 | 23 | 134 | 3.2 | 3.2 | 0.00 | 0.00 | 0.00 | 37 | 1007.0 |
| 20260504202250 | 23 | 39 | 3.2 | 3.2 | 0.00 | 0.00 | 0.00 | 33 | 1007.2 |
| 20260504201747 | 24 | 12 | 4.8 | 4.8 | 0.00 | 0.00 | 0.00 | 33 | 1007.0 |
| 20260504201244 | 24 | 65 | 0.0 | 1.6 | 0.00 | 0.00 | 0.00 | 33 | 1007.2 |
| 20260504200742 | 23 | 346 | 4.8 | 4.8 | 0.00 | 0.00 | 0.00 | 32 | 1007.0 |
| 20260504200238 | 23 | 25 | 9.7 | 14.5 | 0.00 | 0.00 | 0.00 | 33 | 1007.3 |
| 20260504195735 | 22 | 345 | 9.7 | 12.9 | 0.00 | 0.00 | 0.00 | 34 | 1007.1 |
| 20260504195230 | 22 | 71 | 4.8 | 6.4 | 0.00 | 0.00 | 0.00 | 35 | 1007.2 |
| 20260504194728 | 22 | 29 | 8.0 | 12.9 | 0.00 | 0.00 | 0.00 | 35 | 1007.3 |
| 20260504194223 | 23 | 15 | 12.9 | 16.1 | 0.00 | 0.00 | 0.00 | 34 | 1007.1 |
| 20260504193720 | 23 | 125 | 4.8 | 9.7 | 0.00 | 0.00 | 0.00 | 34 | 1007.3 |
| 20260504193218 | 22 | 81 | 3.2 | 3.2 | 0.00 | 0.00 | 0.00 | 38 | 1007.3 |
| 20260504192716 | 22 | 21 | 6.4 | 9.7 | 0.00 | 0.00 | 0.00 | 35 | 1007.2 |
| 20260504192214 | 22 | 78 | 1.6 | 1.6 | 0.00 | 0.00 | 0.00 | 34 | 1007.3 |
| 20260504191712 | 22 | 80 | 1.6 | 1.6 | 0.00 | 0.00 | 0.00 | 35 | 1007.4 |
| 20260504191209 | 22 | 23 | 12.9 | 16.1 | 0.00 | 0.00 | 0.00 | 35 | 1007.4 |
| 20260504190704 | 22 | 78 | 4.8 | 4.8 | 0.00 | 0.00 | 0.00 | 36 | 1007.2 |
| 20260504190200 | 22 | 68 | 3.2 | 6.4 | 0.00 | 0.00 | 0.00 | 37 | 1007.5 |
| 20260504185657 | 22 | 89 | 6.4 | 9.7 | 0.00 | 0.00 | 0.00 | 41 | 1007.4 |
| 20260504185153 | 22 | 353 | 6.4 | 6.4 | 0.00 | 0.00 | 0.00 | 36 | 1007.5 |
| 20260504184650 | 22 | 129 | 3.2 | 4.8 | 0.00 | 0.00 | 0.00 | 36 | 1007.6 |
| 20260504184145 | 22 | 89 | 0.0 | 0.0 | 0.00 | 0.00 | 0.00 | 36 | 1007.5 |
| 20260504183642 | 23 | 34 | 4.8 | 6.4 | 0.00 | 0.00 | 0.00 | 38 | 1007.5 |
| 20260504183139 | 22 | 93 | 0.0 | 0.0 | 0.00 | 0.00 | 0.00 | 36 | 1007.3 |
| 20260504182637 | 21 | 64 | 1.6 | 1.6 | 0.00 | 0.00 | 0.00 | 37 | 1007.4 |
| 20260504182134 | 22 | 160 | 4.8 | 6.4 | 0.00 | 0.00 | 0.00 | 36 | 1007.5 |
| 20260504181632 | 22 | 77 | 0.0 | 1.6 | 0.00 | 0.00 | 0.00 | 38 | 1007.5 |
| 20260504181129 | 21 | 137 | 1.6 | 3.2 | 0.00 | 0.00 | 0.00 | 40 | 1007.6 |
| 20260504180628 | 22 | 56 | 6.4 | 6.4 | 0.00 | 0.00 | 0.00 | 39 | 1007.4 |
| 20260504180127 | 22 | 143 | 0.0 | 1.6 | 0.00 | 0.00 | 0.00 | 40 | 1007.5 |
| 20260504175623 | 22 | 112 | 3.2 | 6.4 | 0.00 | 0.00 | 0.00 | 44 | 1007.5 |
| 20260504175120 | 21 | 112 | 1.6 | 1.6 | 0.00 | 0.00 | 0.00 | 41 | 1007.5 |
| 20260504174618 | 21 | 20 | 8.0 | 11.3 | 0.00 | 0.00 | 0.00 | 40 | 1007.4 |
| 20260504174114 | 21 | 89 | 1.6 | 1.6 | 0.00 | 0.00 | 0.00 | 40 | 1007.5 |
| 20260504173611 | 21 | 102 | 0.0 | 1.6 | 0.00 | 0.00 | 0.00 | 39 | 1007.6 |
| 20260504173109 | 21 | 154 | 4.8 | 4.8 | 0.00 | 0.00 | 0.00 | 40 | 1007.4 |
| 20260504172605 | 20 | 63 | 4.8 | 6.4 | 0.00 | 0.00 | 0.00 | 43 | 1007.6 |
| 20260504172102 | 20 | 93 | 3.2 | 4.8 | 0.00 | 0.00 | 0.00 | 44 | 1007.3 |
| 20260504171558 | 20 | 14 | 12.9 | 14.5 | 0.00 | 0.00 | 0.00 | 40 | 1007.5 |
| 20260504171056 | 21 | 24 | 8.0 | 9.7 | 0.00 | 0.00 | 0.00 | 40 | 1007.6 |
| 20260504170551 | 20 | 76 | 3.2 | 3.2 | 0.00 | 0.00 | 0.00 | 42 | 1007.4 |
| 20260504150935 | 13 | 83 | 0.0 | 0.0 | 0.00 | 0.00 | 0.00 | 68 | 1008.0 |
| 20260504150432 | 12 | 99 | 0.0 | 1.6 | 0.00 | 0.00 | 0.00 | 68 | 1007.7 |
| 20260504140858 | 10 | 59 | 0.0 | 0.0 | 0.00 | 0.00 | 0.00 | 79 | 1007.6 |
| 20260504140354 | 10 | 128 | 0.0 | 0.0 | 0.00 | 0.00 | 0.00 | 81 | 1007.8 |
| 20260504130818 | 6 | 252 | 0.0 | 0.0 | 0.00 | 0.00 | 0.00 | 92 | 1007.0 |
| 20260504130314 | 6 | 240 | 1.6 | 3.2 | 0.00 | 0.00 | 0.00 | 92 | 1007.1 |
| 20260504120238 | 6 | 348 | 1.6 | 1.6 | 0.00 | 0.00 | 0.00 | 90 | 1006.7 |
| 20260504110705 | 7 | 264 | 1.6 | 1.6 | 0.00 | 0.00 | 0.00 | 88 | 1007.0 |
| 20260504110201 | 7 | 293 | 0.0 | 0.0 | 0.00 | 0.00 | 0.00 | 88 | 1007.0 |
| 20260504100125 | 8 | 339 | 0.0 | 0.0 | 0.00 | 0.00 | 0.00 | 84 | 1007.0 |
| 20260504081518 | 10 | 287 | 1.6 | 1.6 | 0.00 | 0.00 | 0.00 | 81 | 1006.6 |
| 20260504081014 | 10 | 287 | 1.6 | 1.6 | 0.00 | 0.00 | 0.00 | 81 | 1006.5 |
| 20260504080510 | 10 | 286 | 1.6 | 1.6 | 0.00 | 0.00 | 0.00 | 82 | 1006.8 |
| 20260504050317 | 12 | 239 | 0.0 | 1.6 | 0.00 | 0.00 | 0.00 | 72 | 1007.2 |
| 20260504045814 | 12 | 239 | 0.0 | 0.0 | 0.00 | 0.00 | 0.00 | 72 | 1007.2 |
| 20260504045314 | 12 | 240 | 0.0 | 0.0 | 0.00 | 0.00 | 0.00 | 71 | 1007.0 |
| 20260504044812 | 12 | 239 | 0.0 | 0.0 | 0.00 | 0.00 | 0.00 | 71 | 1007.3 |
| 20260504044309 | 12 | 239 | 0.0 | 0.0 | 0.00 | 0.00 | 0.00 | 71 | 1007.2 |
| 20260504043806 | 12 | 239 | 0.0 | 0.0 | 0.00 | 0.00 | 0.00 | 71 | 1007.1 |
| 20260504043303 | 12 | 240 | 0.0 | 0.0 | 0.00 | 0.00 | 0.00 | 70 | 1007.3 |
| 20260504042801 | 12 | 239 | 0.0 | 0.0 | 0.00 | 0.00 | 0.00 | 70 | 1007.3 |
| 20260504042257 | 12 | 240 | 1.6 | 1.6 | 0.00 | 0.00 | 0.00 | 70 | 1007.2 |
| 20260504041753 | 13 | 239 | 1.6 | 1.6 | 0.00 | 0.00 | 0.00 | 70 | 1007.4 |
| 20260504041249 | 13 | 235 | 1.6 | 1.6 | 0.00 | 0.00 | 0.00 | 69 | 1007.1 |
| 20260504040745 | 13 | 233 | 1.6 | 1.6 | 0.00 | 0.00 | 0.00 | 70 | 1007.4 |
| 20260504040243 | 13 | 235 | 1.6 | 1.6 | 0.00 | 0.00 | 0.00 | 70 | 1007.1 |